Simultaneous Nadir Overpasses (SNOs) Predictions

Prediction of SNOs between METOP-A and NOAA-19 Satellite Orbit:

Table of predicted SNOs for the next 14.0 days since TLE Epoch: 2/26/2016
Index Date (METOP-A) Time (METOP-A) Lat,Lon (METOP-A) SZA (METOP-A ) Date (NOAA-19) Time (NOAA-19) Lat,Lon (NOAA-19) SZA (NOAA-19 ) Distance(km) Time Diff (sec)
1 03/06/2016 04:24:11 -76.11, -65.74 98.45 03/06/2016 04:23:01 -76.13, -67.71 98.39 52.70 70
2 03/06/2016 05:14:57 75.82, 100.62 81.26 03/06/2016 05:14:01 75.82, 100.61 81.27 0.85 56
3 03/06/2016 06:05:39 -75.82, -92.06 98.76 03/06/2016 06:04:56 -75.81, -92.07 98.76 0.78 43
4 03/06/2016 06:56:19 75.80, 75.23 81.22 03/06/2016 06:56:03 75.82, 75.13 81.23 3.10 16
5 03/06/2016 07:47:01 -75.80,-117.45 98.80 03/06/2016 07:46:58 -75.80,-117.54 98.80 2.55 3
6 03/06/2016 08:37:41 75.78, 49.83 81.17 03/06/2016 08:38:04 75.76, 49.81 81.15 2.65 23
7 03/06/2016 09:28:24 -75.74,-143.00 98.89 03/06/2016 09:28:59 -75.75,-142.87 98.89 3.72 35
8 03/06/2016 10:19:03 75.77, 24.44 81.13 03/06/2016 10:20:06 75.75, 24.33 81.11 3.35 63
9 03/06/2016 11:09:46 -75.72,-168.39 98.94 03/06/2016 11:11:01 -75.74,-168.34 98.92 2.28 75




NCC Satellite Simultaneous Nadir Overpasses (SNOs) Prediction Service
